#timestamp,LO_Frequency,Hit,StdDev 
1541937615.8,286046999.8,N
1541937635.7,286047000.3,N
1541937655.5,286047000.5,N
1541937675.3,286047002.7,N
1541937695.2,286047001.5,N
1541937715.0,286046999.8,N
1541937715.9,286046999.8,N
1541937735.7,286047000.9,N
1541937755.6,286047000.8,N
1541937775.4,286047000.9,N
1541937795.3,286047002.3,N
1541937815.1,286046999.8,N
1541937816.0,286046999.8,N
1541937835.8,286046998.5,N
1541937855.7,286047002.1,N
1541937875.5,286047002.1,N
1541937895.3,286047000.9,N
1541937915.2,286046998.5,N
1541937935.0,286046998.1,N
1541937935.9,286046998.1,N
1541937955.8,286047000.5,N
1541937975.6,286047000.9,N
1541937995.4,286047000.4,N
1541938015.3,286047000.9,N
1541938035.1,286047001.0,N
1541938055.8,286047001.2,N
1541938075.7,286046998.2,N
1541938095.5,286046998.2,N
1541938115.4,286047001.1,N
1541938135.2,286046998.5,N
1541938155.0,286047000.4,N
1541938155.9,286047000.4,N
1541938175.8,286047000.1,N
1541938195.6,286047000.2,N
1541938215.4,286047002.8,N
1541938235.3,286047002.7,N
1541938255.1,286047000.4,N
1541938256.0,286047000.4,N
1541938275.8,286047000.7,N
1541938295.7,286047000.6,N
1541938315.5,286047000.8,N
1541938335.3,286047001.0,N
1541938355.2,286047000.3,N
1541938375.0,286046999.9,N
1541938375.9,286046999.9,N
1541938395.8,286047002.4,N
1541938415.6,286047000.3,N
1541938435.4,286047000.5,N
1541938455.3,286046999.9,N
1541938475.1,286047002.4,N
1541938495.8,286047002.0,N
1541938515.7,286047002.2,N
1541938535.5,286046999.9,N
1541938555.4,286047000.6,N
1541938575.2,286046998.2,N
1541938595.0,286046998.3,N
1541938595.9,286046998.3,N
1541938615.8,286047000.9,N
1541938635.6,286047000.7,N
1541938655.5,286047001.9,N
1541938675.3,286047001.9,N
1541938695.1,286047002.3,N
1541938715.9,286047002.7,N
1541938735.7,286046999.7,N
1541938755.5,286047000.6,N
1541938775.4,286047001.2,N
1541938795.2,286047000.8,N
1541938815.1,286047000.1,N
1541938816.0,286047000.1,N
1541938835.8,286047000.3,N
1541938855.6,286047000.8,N
1541938875.5,286047000.6,N
1541938895.3,286046999.8,N
1541938915.1,286047002.3,N
1541938935.9,286047002.8,N
1541938955.7,286046999.7,N
1541938975.6,286047002.8,N
1541938995.4,286047002.0,N
1541939015.2,286046999.9,N
1541939035.1,286047002.8,N
1541939036.0,286047002.8,N
1541939055.8,286047002.1,N
1541939075.6,286047001.9,N
1541939095.5,286047001.5,N
1541939115.3,286047002.1,N
1541939135.2,286047002.1,N
1541939155.0,286047001.5,N
1541939155.9,286047001.5,N
1541939175.8,286047001.6,N
1541939195.6,286047001.5,N
1541939215.4,286047002.2,N
1541939235.3,286047004.3,Y
1541939255.1,286047001.5,P
1541939275.8,286047002.4,P
1541939295.7,286046999.9,N
1541939315.5,286047000.5,N
1541939335.4,286047001.0,N
1541939355.2,286047001.0,N
1541939375.0,286046999.9,N
1541939375.9,286046999.9,N
1541939425.8,286046999.7,E
1541939435.7,286047002.1,N
1541939455.6,286046999.7,P
1541939475.4,286046999.7,N
1541939495.2,286047001.3,N
1541939515.1,286047001.5,N
1541939516.0,286047001.5,N
1541939535.8,286047002.3,N
1541939555.7,286047002.2,N
1541939575.5,286047000.1,N
1541939595.3,286047000.0,N
1541939615.2,286046999.7,N
1541939635.0,286047002.3,N
1541939635.9,286047002.3,N
1541939655.8,286047001.9,N
1541939675.6,286047001.5,N
1541939695.4,286047002.4,N
1541939715.3,286047002.3,N
1541939735.1,286047001.7,N
1541939755.8,286047002.1,N
1541939775.7,286047002.4,N
1541939795.5,286047002.7,N
1541939815.4,286047002.7,N
1541939835.2,286047002.3,N
1541939855.0,286047003.5,Y
1541939855.9,286047003.5,P
1541939875.8,286047002.0,N
1541939895.6,286046999.8,N
1541939915.4,286047000.7,N
1541939935.3,286047001.1,N
1541939955.1,286047001.0,N
1541939975.9,286047000.0,N
1541939995.7,286047000.3,N
1541940015.5,286047002.7,N
1541940035.4,286047002.7,N
1541940055.2,286047002.6,N
1541940075.0,286047000.5,N
1541940076.0,286047000.5,N
1541940095.8,286047000.6,N
1541940115.6,286047000.9,N
1541940135.5,286047000.7,N
1541940155.3,286047001.2,N
1541940175.1,286047000.3,N
1541940195.9,286047001.2,N
1541940215.7,286047000.7,N
1541940235.6,286046996.6,Y
1541940255.4,286046998.9,P
1541940275.2,286046996.7,N
1541940295.1,286046996.6,N
1541940296.0,286046996.6,N
1541940315.8,286046996.6,N
1541940335.6,286046999.1,N
1541940355.5,286046998.2,N
1541940375.3,286046998.2,N
1541940395.2,286046998.9,N
1541940415.9,286046999.5,N
1541940435.7,286047001.2,N
1541940455.6,286046998.4,N
1541940475.4,286046998.4,N
1541940495.2,286046999.4,N
1541940515.1,286046999.2,N
1541940516.0,286046999.2,N
1541940535.8,286046998.3,N
1541940555.6,286046999.1,N
1541940575.5,286046998.3,N
1541940595.3,286046998.3,N
1541940615.2,286047001.0,N
1541940635.0,286047001.0,N
1541940635.9,286047001.0,N
1541940655.8,286047000.7,N
1541940675.6,286046998.2,N
1541940695.4,286046998.3,N
1541940715.3,286046999.4,N
1541940735.1,286046996.5,N
1541940755.8,286046998.8,N
1541940775.7,286046998.6,N
1541940795.5,286047000.5,N
1541940815.4,286046998.2,N
1541940835.2,286046998.4,N
1541940855.0,286046998.3,N
1541940855.9,286046998.3,N
1541940875.8,286046999.3,N
1541940895.6,286046999.0,N
1541940915.4,286046999.0,N
1541940935.3,286046998.8,N
1541940955.1,286046998.9,N
1541940975.9,286046998.3,N
1541940995.7,286046998.6,N
1541941015.5,286047000.8,N
1541941035.4,286047000.8,N
1541941055.2,286046998.7,N
1541941075.0,286046998.6,N
1541941075.9,286046998.6,N
1541941095.8,286047000.8,N
1541941115.6,286047000.4,N
1541941135.5,286046998.4,N
1541941155.3,286046998.2,N
1541941175.1,286046999.4,N
1541941195.9,286046998.8,N
